TimeCST,TemperatureF,Dew PointF,Humidity,Sea Level PressureIn,VisibilityMPH,Wind Direction,Wind SpeedMPH,Gust SpeedMPH,PrecipitationIn,Events,Conditions,WindDirDegrees,DateUTC
12:49 AM,46.4,42.8,87,29.91,5.0,NNE,4.6,-,0.00,Rain,Light Rain,20,2012-12-07 06:49:00
12:54 AM,46.9,42.1,83,29.91,5.0,NNE,5.8,-,0.00,,Haze,30,2012-12-07 06:54:00
1:45 AM,46.4,42.8,87,29.91,9.0,NNE,4.6,-,N/A,,Overcast,20,2012-12-07 07:45:00
1:54 AM,46.9,43.0,86,29.91,9.0,NNE,4.6,-,N/A,,Overcast,20,2012-12-07 07:54:00
2:43 AM,46.4,42.8,87,29.91,10.0,NNE,6.9,-,N/A,,Overcast,30,2012-12-07 08:43:00
2:54 AM,46.9,42.1,83,29.91,10.0,NNE,5.8,-,N/A,,Overcast,20,2012-12-07 08:54:00
3:54 AM,45.0,42.1,90,29.91,4.0,North,6.9,-,N/A,,Overcast,10,2012-12-07 09:54:00
4:45 AM,44.6,41.0,87,29.91,5.0,NNE,5.8,-,0.00,,Overcast,30,2012-12-07 10:45:00
4:54 AM,44.1,42.1,93,29.91,6.0,NNE,6.9,-,0.00,,Overcast,20,2012-12-07 10:54:00
5:54 AM,44.1,41.0,89,29.90,9.0,NE,4.6,-,N/A,,Overcast,50,2012-12-07 11:54:00
6:54 AM,45.0,41.0,86,29.91,9.0,NE,4.6,-,N/A,,Overcast,50,2012-12-07 12:54:00
7:18 AM,44.6,41.0,87,29.90,8.0,North,3.5,-,N/A,,Overcast,10,2012-12-07 13:18:00
7:47 AM,44.6,41.0,87,29.91,8.0,NNE,4.6,-,N/A,,Overcast,20,2012-12-07 13:47:00
7:54 AM,45.0,41.0,86,29.91,8.0,North,3.5,-,N/A,,Overcast,360,2012-12-07 13:54:00
8:12 AM,44.6,42.8,93,29.90,7.0,NE,3.5,-,N/A,,Overcast,50,2012-12-07 14:12:00
8:54 AM,46.0,42.1,86,29.92,7.0,Calm,Calm,-,N/A,,Overcast,0,2012-12-07 14:54:00
9:54 AM,46.9,41.0,80,29.92,6.0,NE,3.5,-,N/A,,Haze,40,2012-12-07 15:54:00
10:54 AM,46.9,42.1,83,29.91,5.0,NNE,5.8,-,N/A,,Haze,20,2012-12-07 16:54:00
11:54 AM,46.9,42.1,83,29.89,5.0,NE,3.5,-,N/A,,Haze,50,2012-12-07 17:54:00
12:54 PM,46.9,42.1,83,29.87,5.0,ENE,3.5,-,N/A,,Haze,60,2012-12-07 18:54:00
1:54 PM,48.0,42.1,80,29.86,4.0,North,3.5,-,N/A,,Haze,350,2012-12-07 19:54:00
2:54 PM,48.0,41.0,77,29.87,5.0,Calm,Calm,-,N/A,,Haze,0,2012-12-07 20:54:00
3:54 PM,48.0,42.1,80,29.87,5.0,NNE,4.6,-,N/A,,Haze,20,2012-12-07 21:54:00
4:54 PM,46.9,42.1,83,29.88,8.0,North,4.6,-,N/A,,Overcast,10,2012-12-07 22:54:00
5:21 PM,46.4,41.0,81,29.88,8.0,North,4.6,-,N/A,,Overcast,360,2012-12-07 23:21:00
5:32 PM,46.4,41.0,81,29.88,9.0,North,5.8,-,N/A,,Overcast,10,2012-12-07 23:32:00
5:54 PM,46.9,41.0,80,29.89,9.0,NNE,4.6,-,N/A,,Overcast,20,2012-12-07 23:54:00
6:47 PM,46.4,41.0,81,29.89,9.0,NNE,5.8,-,N/A,,Overcast,30,2012-12-08 00:47:00
6:54 PM,46.4,41.0,81,29.89,9.0,NE,4.6,-,N/A,,Overcast,40,2012-12-08 00:54:00
7:54 PM,45.0,39.9,82,29.91,9.0,NNE,4.6,-,N/A,,Mostly Cloudy,30,2012-12-08 01:54:00
8:02 PM,44.6,39.2,81,29.91,9.0,NNE,3.5,-,N/A,,Mostly Cloudy,20,2012-12-08 02:02:00
8:54 PM,44.1,39.0,82,29.91,9.0,East,3.5,-,N/A,,Mostly Cloudy,90,2012-12-08 02:54:00
9:54 PM,45.0,39.9,82,29.92,8.0,NNW,3.5,-,N/A,,Overcast,340,2012-12-08 03:54:00
10:42 PM,44.6,39.2,81,29.93,8.0,Calm,Calm,-,N/A,,Overcast,0,2012-12-08 04:42:00
10:54 PM,44.1,39.9,85,29.94,7.0,Calm,Calm,-,N/A,,Overcast,0,2012-12-08 04:54:00
11:40 PM,44.6,39.2,81,29.95,8.0,NNW,4.6,-,N/A,,Overcast,330,2012-12-08 05:40:00
11:54 PM,44.1,39.0,82,29.95,8.0,Calm,Calm,-,N/A,,Overcast,0,2012-12-08 05:54:00